Wind_Speed
13 14 15 16 16 17 17 16 15 14 15 16 16 17 16 17 17 16 16 16 15 15 15 15 15 14 13 13 12 12 11 11 11 10 10 10 11 11 12 13 13 14 14 14
12 13 14 15 16 17 17 16 16 16 16 17 17 17 17 17 18 17 17 16 16 16 16 16 16 15 15 14 14 14 13 13 13 12 12 12 13 13 14 15 15 16 16 17
11 12 13 14 14 15 16 15 16 16 17 18 18 18 17 18 18 17 17 17 17 17 17 16 16 16 16 16 16 15 15 15 14 14 14 15 15 16 16 17 18 18 19 20
12 13 13 13 14 15 15 15 16 16 17 19 18 18 18 19 18 18 18 18 18 17 17 17 17 17 17 17 17 17 17 16 16 16 16 17 18 18 19 19 20 21 21 23
14 14 13 13 13 15 15 15 16 17 18 19 19 19 19 19 19 19 19 19 19 18 18 18 18 18 18 18 18 18 19 18 18 19 19 20 20 20 21 22 22 23 24 25
16 15 14 14 15 15 15 15 17 18 19 19 19 19 19 20 20 20 19 19 20 20 20 20 20 19 19 20 20 20 20 20 20 21 21 22 23 23 24 24 25 26 26 27
17 17 15 15 16 17 16 16 18 19 19 19 19 19 20 21 21 20 20 20 20 20 20 21 20 20 20 21 21 21 21 22 23 23 23 24 25 26 26 27 27 28 29 30
19 19 17 17 17 18 17 18 18 18 18 19 19 20 20 20 20 20 20 21 21 21 22 22 22 22 22 22 22 23 23 23 24 25 26 26 27 28 29 29 30 30 31 32
21 20 20 20 20 19 19 19 19 20 20 20 20 20 21 21 21 21 22 22 22 23 23 23 23 23 23 24 24 24 25 26 26 27 28 29 29 30 30 31 32 33 34 35
23 22 21 22 22 22 21 21 21 21 21 21 22 22 22 23 23 23 23 23 23 23 24 24 25 25 26 26 26 26 27 28 28 29 30 31 31 32 33 34 34 35 36 37
25 24 24 24 24 24 24 23 24 24 23 23 23 24 24 24 25 25 25 25 25 26 26 27 27 28 28 28 28 28 29 30 31 32 32 33 34 35 35 36 37 38 39 40
27 27 28 27 26 26 26 26 26 26 25 25 25 26 26 26 27 27 27 27 27 27 28 29 29 29 29 29 30 31 31 32 33 34 35 36 37 38 38 40 40 41 42 43
29 29 29 29 28 28 28 28 28 27 28 27 27 28 28 29 29 29 29 29 29 29 30 30 30 30 30 31 32 33 34 35 35 36 37 38 40 40 41 42 43 44 45 45
31 31 31 31 31 31 31 30 30 30 30 30 30 30 30 30 30 30 31 31 31 31 31 32 32 32 33 34 35 36 37 38 38 39 40 41 42 43 44 45 45 46 47 47
33 33 33 32 32 32 32 32 32 31 31 31 31 31 32 32 32 32 33 33 33 33 34 34 34 35 37 37 38 39 40 40 41 42 43 44 45 45 46 47 48 48 49 49
35 35 35 34 33 33 33 33 33 32 32 32 33 33 33 33 33 33 33 34 34 35 36 36 37 38 39 40 41 42 42 43 44 44 45 46 47 48 48 49 50 50 51 51
37 36 36 36 35 34 34 34 34 34 34 34 34 35 34 35 35 35 35 36 37 38 39 39 40 41 42 43 44 45 45 46 46 46 47 48 49 49 50 51 51 51 52 53
37 37 37 36 36 36 36 36 36 36 36 36 36 37 37 37 37 38 38 39 40 40 41 42 43 44 45 45 46 47 47 48 48 48 49 50 51 51 52 52 53 53 53 54
38 38 37 37 37 38 38 38 38 37 37 37 37 37 38 38 39 40 41 42 42 43 43 44 45 46 47 47 48 48 49 49 49 50 51 52 52 53 53 54 54 54 54 55
40 39 39 39 39 39 39 39 39 39 39 38 39 39 39 40 40 41 42 43 44 44 45 46 47 48 48 48 49 49 50 50 50 51 52 52 53 53 54 54 54 55 55 56
41 41 41 41 41 41 40 40 40 40 40 40 40 40 41 41 42 43 43 44 44 45 46 47 47 48 48 49 50 50 51 51 52 53 53 54 54 54 54 55 55 56 56 57
42 42 42 43 43 43 42 42 42 42 42 42 42 43 43 43 44 44 45 45 45 46 47 48 49 49 49 50 50 51 52 53 54 54 55 55 55 55 55 56 57 57 58 59
43 43 44 44 44 45 45 45 44 44 44 44 44 44 45 45 45 45 46 46 47 47 48 49 49 50 50 51 52 53 54 54 55 56 56 56 56 57 57 57 58 59 59 60
44 45 45 45 46 46 46 46 46 46 46 46 46 46 46 46 47 47 48 48 49 49 50 50 51 51 52 53 53 54 55 55 56 56 57 57 57 58 58 58 58 59 59 60
44 45 46 46 47 47 47 48 48 48 48 48 48 48 49 49 49 49 50 50 50 51 51 52 52 53 53 53 54 55 55 56 56 56 57 57 57 58 58 58 59 59 60 59
45 45 46 46 47 47 47 48 49 49 49 50 50 50 51 51 51 52 52 51 51 52 52 52 53 53 54 54 54 55 56 56 56 56 56 57 57 58 58 58 58 58 58 58
45 45 46 47 47 47 47 48 48 49 49 50 51 51 52 52 52 52 52 52 52 52 52 53 53 54 54 55 55 55 55 55 56 56 56 56 56 56 56 56 56 56 56 56
Wind_Direction
205 206 208 211 212 213 213 210 212 215 218 219 221 223 223 221 222 223 224 223 224 225 227 230 232 233 235 238 240 242 246 251 257 265 274 282 288 295 302 307 308 310 314 317
211 212 213 214 215 217 216 216 216 216 216 220 221 223 224 226 227 227 226 227 228 230 231 234 236 237 239 242 244 247 251 255 260 266 274 281 287 292 298 302 304 303 305 308
219 220 219 219 221 222 221 221 221 221 219 222 224 226 227 228 227 228 229 231 233 233 234 236 238 240 242 245 247 250 254 258 262 269 276 283 287 290 294 298 301 301 300 303
221 222 221 218 223 225 225 224 223 222 225 228 230 232 232 231 230 231 232 234 236 237 239 240 242 244 246 248 250 253 257 260 266 272 279 283 286 289 293 295 298 300 300 301
228 231 229 228 228 230 230 229 229 229 231 233 234 237 236 235 232 231 233 237 239 239 241 243 246 248 249 251 253 256 259 263 268 273 278 283 285 287 291 294 296 298 300 301
234 237 235 233 235 236 237 235 234 235 235 236 238 240 237 236 235 235 237 241 243 242 244 247 250 251 252 253 256 258 261 265 270 275 278 282 284 286 290 293 295 297 298 300
238 238 237 238 239 240 242 238 236 237 240 241 241 242 238 238 238 239 241 246 247 246 248 250 252 253 253 254 257 260 264 269 273 277 280 282 284 286 289 292 294 295 297 298
241 242 240 240 242 242 242 241 243 242 243 244 245 244 242 242 243 245 247 249 249 249 250 251 252 253 253 255 259 264 268 272 275 278 280 282 284 286 289 291 293 294 296 298
243 244 243 242 243 246 245 247 248 248 247 247 247 247 246 246 247 249 251 251 251 251 252 252 254 255 256 259 263 267 270 273 275 278 280 282 284 286 288 290 292 293 295 297
245 246 246 246 247 247 247 247 247 248 249 248 248 249 249 248 249 251 252 252 253 254 254 255 256 257 259 262 266 269 271 274 276 279 281 283 285 287 289 290 291 293 294 296
247 247 248 248 249 249 250 250 249 249 250 250 250 250 251 252 252 253 253 254 255 256 256 258 259 260 263 265 268 270 272 275 278 280 282 284 286 287 289 290 291 293 294 295
248 248 248 249 249 251 252 252 252 252 251 251 251 251 253 253 254 255 256 256 257 258 259 260 261 263 265 267 269 271 274 276 279 281 283 284 286 287 289 290 291 292 293 295
249 249 250 250 251 252 253 254 255 255 254 254 254 254 255 256 257 258 258 258 259 259 260 261 263 265 266 269 271 273 275 277 279 281 283 284 286 287 289 290 291 292 293 295
250 251 251 251 251 252 253 254 256 257 257 257 257 258 258 259 260 260 260 260 261 261 262 263 265 267 269 271 273 275 276 278 280 282 283 284 286 287 289 290 291 292 293 295
250 251 252 252 253 253 254 254 255 256 257 257 258 258 258 259 260 261 261 261 262 263 264 265 267 269 271 272 274 275 277 279 280 282 283 285 286 288 289 290 292 293 293 295
251 252 253 253 254 254 254 254 255 256 256 257 257 258 258 259 259 260 261 262 263 264 265 267 269 270 272 274 275 276 278 280 281 283 284 285 287 288 289 291 292 293 293 294
252 252 253 253 254 254 254 255 256 257 258 258 259 259 259 260 260 261 262 263 265 266 267 268 270 271 273 275 276 278 279 280 282 283 284 286 287 288 290 291 292 293 294 294
252 252 252 252 253 254 255 256 257 258 259 260 260 260 260 261 262 263 264 264 266 267 269 270 271 273 274 275 277 278 280 281 282 283 284 286 287 289 290 291 292 292 293 294
252 252 252 253 254 255 256 257 258 258 259 260 260 261 261 262 263 264 265 266 267 269 270 271 272 273 274 276 277 279 280 281 282 283 285 286 287 289 290 291 291 292 293 294
252 252 253 254 255 256 256 257 258 259 259 260 261 262 263 264 264 265 266 267 269 270 271 272 273 274 275 276 277 279 280 281 283 284 285 287 288 289 290 290 291 292 293 294
252 253 254 255 256 256 257 257 258 259 260 261 262 263 264 265 266 267 268 269 270 271 271 272 273 275 276 277 278 279 280 281 283 284 285 287 288 289 289 290 291 292 293 293
253 254 254 256 256 257 257 258 258 259 260 261 262 264 265 267 268 269 269 270 271 272 273 274 275 276 277 277 278 279 281 282 283 284 285 286 287 288 289 290 291 292 293 293
253 254 254 255 256 257 258 259 259 260 261 262 263 264 265 267 268 269 270 271 272 272 273 274 275 276 277 278 279 280 281 282 283 284 285 286 287 288 289 290 291 292 293 294
254 254 255 255 256 257 258 259 260 261 262 262 263 264 265 267 268 269 270 271 271 272 273 275 276 277 278 279 280 281 282 283 283 284 285 285 287 288 289 290 291 292 293 294
255 255 256 257 257 257 258 258 259 260 261 263 264 265 266 267 268 269 270 272 272 273 274 275 276 277 278 279 280 281 282 282 283 284 285 286 287 288 289 290 291 292 293 294
256 256 257 257 257 258 259 260 260 261 262 263 264 265 266 268 268 269 271 272 273 273 274 275 276 277 278 279 280 281 282 283 284 285 286 287 287 288 289 290 292 293 293 294
258 259 258 258 258 258 259 261 261 262 263 264 265 266 267 268 268 269 270 271 272 273 274 275 276 277 278 279 280 281 282 283 285 286 286 287 288 289 290 291 291 292 293 294
Height
5824 5826 5829 5831 5833 5835 5838 5841 5844 5846 5848 5850 5852 5854 5856 5858 5861 5863 5865 5867 5869 5870 5872 5874 5875 5876 5878 5879 5880 5880 5881 5881 5881 5881 5881 5881 5880 5879 5878 5877 5875 5873 5872 5870
5823 5825 5827 5829 5831 5833 5835 5838 5840 5842 5845 5847 5848 5850 5853 5855 5857 5859 5861 5863 5865 5867 5869 5870 5872 5873 5874 5875 5876 5877 5877 5878 5878 5878 5878 5877 5876 5876 5874 5873 5872 5870 5868 5866
5822 5823 5825 5828 5830 5831 5833 5835 5837 5840 5842 5843 5845 5847 5849 5851 5854 5856 5858 5860 5861 5863 5865 5866 5868 5869 5870 5871 5872 5873 5873 5874 5874 5874 5874 5873 5872 5871 5870 5869 5867 5866 5864 5862
5820 5823 5824 5828 5827 5829 5830 5832 5834 5836 5837 5839 5841 5843 5845 5848 5850 5852 5854 5855 5857 5859 5861 5862 5863 5865 5866 5867 5868 5868 5869 5869 5869 5869 5869 5868 5867 5866 5865 5864 5862 5860 5859 5856
5818 5820 5822 5824 5825 5826 5827 5829 5831 5832 5834 5835 5837 5839 5842 5844 5846 5848 5849 5851 5853 5855 5856 5858 5859 5860 5861 5862 5863 5863 5864 5864 5864 5864 5864 5863 5862 5861 5860 5858 5857 5855 5853 5850
5815 5817 5819 5822 5822 5822 5825 5826 5827 5828 5830 5831 5833 5836 5839 5840 5841 5843 5845 5847 5848 5850 5851 5853 5854 5855 5856 5857 5858 5858 5858 5859 5859 5858 5858 5857 5856 5855 5853 5852 5850 5848 5846 5843
5811 5813 5815 5817 5817 5819 5822 5823 5823 5824 5826 5828 5830 5832 5834 5835 5836 5838 5840 5842 5843 5845 5846 5847 5848 5849 5850 5851 5852 5852 5852 5852 5852 5852 5851 5850 5849 5848 5846 5845 5843 5841 5838 5836
5807 5809 5813 5812 5813 5815 5817 5817 5818 5820 5821 5823 5825 5826 5828 5830 5831 5833 5835 5836 5837 5839 5840 5841 5842 5843 5844 5845 5845 5845 5846 5846 5845 5845 5844 5843 5842 5840 5839 5837 5835 5832 5830 5827
5803 5806 5806 5807 5808 5810 5811 5813 5814 5815 5817 5818 5820 5821 5823 5824 5826 5828 5829 5830 5832 5833 5834 5835 5836 5837 5838 5838 5838 5839 5839 5838 5838 5837 5836 5835 5834 5832 5830 5828 5826 5823 5821 5818
5796 5798 5800 5801 5802 5804 5805 5807 5808 5810 5811 5813 5814 5816 5817 5819 5820 5822 5823 5824 5825 5827 5828 5828 5829 5830 5831 5831 5831 5831 5831 5831 5830 5829 5828 5827 5825 5823 5821 5819 5816 5814 5811 5808
5789 5792 5793 5795 5796 5797 5799 5801 5802 5804 5805 5807 5808 5810 5811 5812 5814 5815 5816 5818 5819 5820 5821 5821 5822 5823 5823 5823 5823 5823 5823 5822 5821 5820 5819 5818 5816 5814 5812 5809 5806 5804 5800 5797
5782 5784 5785 5787 5789 5791 5792 5794 5795 5797 5798 5800 5801 5803 5804 5805 5807 5808 5809 5810 5811 5812 5813 5814 5814 5814 5815 5815 5815 5814 5814 5813 5812 5811 5809 5808 5806 5804 5801 5798 5795 5792 5789 5785
5774 5775 5777 5779 5781 5783 5784 5786 5788 5789 5791 5792 5794 5795 5796 5798 5799 5800 5801 5802 5803 5804 5804 5805 5805 5806 5806 5806 5805 5805 5804 5803 5802 5800 5799 5797 5794 5792 5790 5787 5783 5780 5776 5773
5764 5766 5769 5771 5773 5774 5776 5778 5779 5781 5782 5784 5785 5787 5788 5789 5790 5791 5792 5793 5794 5794 5795 5796 5796 5796 5796 5796 5795 5794 5793 5792 5791 5789 5787 5785 5782 5780 5777 5774 5771 5767 5764 5760
5755 5757 5759 5762 5764 5765 5767 5769 5770 5772 5773 5775 5776 5777 5779 5780 5781 5782 5783 5783 5784 5785 5785 5786 5786 5786 5786 5785 5784 5783 5782 5781 5779 5777 5775 5772 5770 5767 5764 5761 5757 5754 5750 5746
5746 5747 5749 5752 5754 5756 5757 5759 5761 5763 5764 5765 5766 5768 5769 5770 5771 5772 5772 5773 5774 5775 5775 5775 5775 5775 5774 5773 5772 5771 5770 5768 5766 5764 5762 5759 5756 5753 5750 5747 5743 5739 5736 5732
5735 5737 5739 5741 5743 5745 5747 5749 5751 5753 5754 5755 5756 5757 5758 5759 5760 5761 5762 5762 5763 5763 5763 5763 5763 5762 5762 5761 5760 5758 5757 5755 5752 5750 5748 5745 5742 5739 5736 5732 5728 5724 5721 5716
5723 5726 5728 5730 5732 5734 5736 5738 5740 5741 5743 5744 5745 5746 5747 5748 5749 5750 5750 5750 5751 5751 5751 5751 5750 5749 5748 5747 5746 5744 5743 5741 5738 5736 5733 5731 5727 5724 5720 5717 5713 5709 5705 5701
5711 5714 5716 5718 5720 5722 5724 5726 5728 5729 5731 5732 5733 5734 5735 5736 5737 5737 5738 5738 5738 5738 5738 5737 5736 5735 5734 5733 5731 5730 5728 5726 5723 5721 5718 5715 5712 5708 5705 5701 5697 5693 5689 5685
5699 5702 5704 5706 5708 5710 5712 5714 5715 5717 5718 5719 5721 5722 5723 5723 5724 5724 5724 5724 5724 5724 5724 5723 5722 5721 5720 5718 5716 5714 5713 5710 5708 5705 5702 5699 5696 5692 5688 5685 5681 5677 5672 5668
5686 5689 5691 5694 5696 5697 5699 5701 5702 5704 5706 5707 5708 5709 5709 5710 5710 5710 5710 5711 5710 5709 5709 5708 5707 5706 5705 5703 5701 5699 5697 5695 5692 5689 5686 5683 5680 5676 5672 5668 5664 5660 5656 5651
5673 5675 5678 5680 5682 5684 5686 5687 5689 5691 5692 5693 5694 5695 5696 5696 5696 5696 5696 5696 5696 5695 5694 5693 5692 5691 5689 5687 5685 5683 5681 5678 5676 5673 5670 5666 5663 5659 5655 5651 5647 5643 5638 5634
5659 5661 5663 5666 5668 5670 5671 5673 5675 5676 5678 5679 5680 5681 5681 5682 5682 5682 5682 5681 5680 5679 5678 5678 5676 5675 5673 5671 5669 5667 5665 5662 5659 5656 5653 5649 5646 5642 5638 5634 5630 5625 5621 5616
5644 5647 5649 5651 5653 5655 5657 5658 5660 5661 5663 5664 5665 5666 5666 5666 5666 5666 5666 5665 5665 5664 5663 5662 5660 5659 5657 5655 5653 5650 5648 5645 5642 5638 5635 5632 5628 5624 5620 5616 5612 5608 5603 5598
5630 5632 5634 5636 5638 5640 5642 5643 5645 5646 5647 5648 5649 5650 5650 5650 5651 5650 5650 5649 5648 5647 5646 5645 5644 5642 5639 5638 5636 5633 5630 5627 5624 5621 5617 5614 5610 5606 5602 5598 5594 5589 5585 5580
5615 5617 5619 5620 5622 5624 5626 5628 5629 5630 5631 5632 5633 5633 5634 5634 5633 5633 5633 5632 5631 5630 5629 5628 5626 5624 5622 5621 5618 5615 5612 5609 5606 5603 5599 5595 5592 5588 5584 5580 5576 5571 5567 5562
5600 5602 5603 5605 5607 5609 5610 5611 5613 5614 5615 5616 5617 5617 5617 5617 5616 5616 5615 5615 5614 5613 5612 5611 5609 5607 5605 5603 5601 5598 5594 5591 5588 5585 5581 5578 5574 5570 5566 5562 5558 5553 5549 5545